Total_Precipitation_Accumulation
0.06 0.07 0.07 0.08 0.07 0.06 0.07 0.07 0.07 0.05 0.05 0.07 0.06 0.05 0.06 0.07 0.06 0.04 0.06 0.06 0.04 0.06 0.07 0.03 0.04 0.05 0.02 0.03 0.02 0.00 0.00 0.01 0.00 0.00 0.00 0.00 0.00 0.00 0.00 0.00 0.00 0.00 0.00 0.00 0.00 0.00 0.00 0.00 0.00 0.00 0.00 0.00 0.00 0.00 0.00 0.00 0.00 0.00 0.00 0.00 0.00 0.00 0.00 0.00 0.00 0.00 0.00 0.00 0.00 0.00 0.00 0.00 0.00 0.00 0.00 0.00 0.00 0.00 0.00 0.00 0.01 0.02 0.05 0.15 0.09 0.15 0.07 0.17
0.08 0.07 0.08 0.08 0.07 0.07 0.06 0.06 0.06 0.06 0.05 0.04 0.06 0.05 0.06 0.06 0.08 0.07 0.05 0.06 0.06 0.04 0.03 0.06 0.03 0.02 0.03 0.02 0.01 0.01 0.01 0.00 0.00 0.00 0.00 0.00 0.00 0.00 0.00 0.00 0.00 0.00 0.00 0.00 0.00 0.00 0.00 0.00 0.00 0.00 0.00 0.00 0.00 0.00 0.00 0.00 0.00 0.00 0.00 0.00 0.00 0.00 0.00 0.00 0.00 0.00 0.00 0.00 0.00 0.00 0.00 0.00 0.00 0.00 0.00 0.01 0.00 0.00 0.00 0.01 0.01 0.05 0.16 0.21 0.26 0.24 0.16 0.21
0.07 0.09 0.08 0.08 0.08 0.07 0.06 0.06 0.06 0.05 0.05 0.06 0.06 0.08 0.06 0.05 0.07 0.08 0.06 0.06 0.04 0.03 0.04 0.03 0.05 0.02 0.01 0.03 0.01 0.01 0.01 0.00 0.00 0.00 0.01 0.00 0.00 0.00 0.00 0.00 0.00 0.00 0.00 0.00 0.00 0.00 0.00 0.00 0.00 0.00 0.00 0.00 0.00 0.00 0.00 0.00 0.00 0.00 0.00 0.00 0.00 0.00 0.00 0.00 0.00 0.00 0.00 0.00 0.00 0.00 0.00 0.00 0.00 0.00 0.00 0.01 0.01 0.00 0.00 0.04 0.03 0.07 0.29 0.22 0.32 0.26 0.28 0.42
0.08 0.08 0.09 0.09 0.08 0.08 0.06 0.07 0.06 0.05 0.07 0.08 0.07 0.07 0.07 0.08 0.05 0.07 0.09 0.06 0.03 0.07 0.05 0.03 0.02 0.04 0.03 0.01 0.02 0.00 0.00 0.00 0.00 0.00 0.00 0.00 0.00 0.00 0.00 0.00 0.00 0.00 0.00 0.00 0.00 0.00 0.00 0.00 0.00 0.00 0.00 0.00 0.00 0.00 0.00 0.00 0.00 0.00 0.00 0.00 0.00 0.00 0.00 0.00 0.00 0.00 0.00 0.00 0.00 0.00 0.00 0.00 0.00 0.00 0.00 0.00 0.00 0.03 0.01 0.00 0.03 0.10 0.21 0.22 0.24 0.33 0.26 0.40
0.08 0.10 0.08 0.07 0.08 0.08 0.07 0.07 0.08 0.08 0.07 0.07 0.08 0.07 0.08 0.05 0.07 0.06 0.06 0.06 0.05 0.06 0.04 0.03 0.03 0.01 0.05 0.05 0.01 0.00 0.00 0.00 0.02 0.00 0.00 0.00 0.00 0.00 0.00 0.00 0.00 0.00 0.00 0.00 0.00 0.00 0.00 0.00 0.00 0.00 0.00 0.00 0.00 0.00 0.00 0.00 0.00 0.00 0.00 0.00 0.00 0.00 0.00 0.00 0.00 0.00 0.00 0.00 0.00 0.00 0.00 0.00 0.00 0.00 0.00 0.00 0.00 0.01 0.00 0.03 0.01 0.06 0.04 0.18 0.26 0.26 0.19 0.33
0.08 0.09 0.09 0.09 0.08 0.10 0.08 0.07 0.07 0.07 0.06 0.06 0.07 0.08 0.06 0.08 0.06 0.06 0.06 0.06 0.07 0.05 0.05 0.04 0.05 0.02 0.04 0.03 0.00 0.00 0.00 0.00 0.00 0.00 0.00 0.00 0.00 0.00 0.00 0.00 0.00 0.00 0.00 0.00 0.00 0.00 0.00 0.00 0.00 0.00 0.00 0.00 0.00 0.00 0.00 0.00 0.00 0.00 0.00 0.00 0.00 0.00 0.00 0.00 0.00 0.00 0.00 0.00 0.00 0.00 0.00 0.00 0.00 0.00 0.00 0.00 0.00 0.00 0.00 0.00 0.00 0.03 0.05 0.10 0.09 0.13 0.26 0.35
0.07 0.08 0.08 0.09 0.08 0.09 0.09 0.09 0.07 0.06 0.06 0.06 0.08 0.06 0.08 0.10 0.07 0.07 0.07 0.06 0.05 0.06 0.04 0.05 0.03 0.04 0.03 0.01 0.00 0.01 0.01 0.00 0.00 0.00 0.00 0.00 0.00 0.00 0.00 0.00 0.00 0.00 0.00 0.00 0.00 0.00 0.00 0.00 0.00 0.00 0.00 0.00 0.00 0.00 0.00 0.00 0.00 0.00 0.00 0.00 0.00 0.00 0.00 0.00 0.00 0.00 0.00 0.00 0.00 0.00 0.00 0.00 0.00 0.00 0.00 0.00 0.00 0.00 0.00 0.00 0.02 0.06 0.13 0.11 0.16 0.15 0.11 0.24
0.08 0.07 0.08 0.09 0.09 0.09 0.09 0.09 0.08 0.05 0.07 0.08 0.07 0.07 0.07 0.06 0.08 0.07 0.06 0.06 0.05 0.04 0.06 0.06 0.03 0.01 0.06 0.03 0.01 0.00 0.02 0.00 0.00 0.00 0.00 0.00 0.00 0.00 0.00 0.00 0.00 0.00 0.00 0.00 0.00 0.00 0.00 0.00 0.00 0.00 0.00 0.00 0.00 0.00 0.00 0.00 0.00 0.00 0.00 0.00 0.00 0.00 0.00 0.00 0.00 0.00 0.00 0.00 0.00 0.00 0.00 0.00 0.00 0.00 0.00 0.00 0.00 0.00 0.00 0.00 0.01 0.09 0.14 0.29 0.23 0.19 0.26 0.37
0.08 0.07 0.09 0.09 0.08 0.08 0.08 0.07 0.07 0.09 0.07 0.07 0.06 0.07 0.06 0.05 0.05 0.05 0.05 0.06 0.04 0.03 0.05 0.04 0.04 0.03 0.03 0.09 0.08 0.04 0.00 0.00 0.00 0.00 0.00 0.00 0.00 0.00 0.00 0.00 0.00 0.00 0.00 0.00 0.00 0.00 0.00 0.00 0.00 0.00 0.00 0.00 0.00 0.00 0.00 0.00 0.00 0.00 0.00 0.00 0.00 0.00 0.00 0.00 0.00 0.00 0.00 0.00 0.00 0.00 0.00 0.00 0.00 0.00 0.00 0.00 0.00 0.00 0.00 0.01 0.02 0.15 0.23 0.21 0.26 0.26 0.30 0.40
0.10 0.11 0.09 0.09 0.07 0.07 0.06 0.08 0.07 0.09 0.10 0.08 0.07 0.06 0.06 0.04 0.03 0.05 0.03 0.04 0.05 0.04 0.03 0.04 0.03 0.08 0.09 0.12 0.06 0.03 0.00 0.00 0.00 0.00 0.00 0.00 0.00 0.00 0.00 0.00 0.00 0.00 0.00 0.00 0.00 0.00 0.00 0.00 0.00 0.00 0.00 0.00 0.00 0.00 0.00 0.00 0.00 0.00 0.00 0.00 0.00 0.00 0.00 0.00 0.00 0.00 0.00 0.00 0.00 0.00 0.00 0.00 0.00 0.00 0.00 0.00 0.00 0.01 0.00 0.01 0.06 0.17 0.38 0.23 0.19 0.40 0.58 0.43
0.09 0.09 0.07 0.09 0.10 0.07 0.09 0.06 0.07 0.08 0.09 0.06 0.06 0.06 0.04 0.04 0.03 0.02 0.04 0.03 0.05 0.05 0.06 0.02 0.10 0.08 0.18 0.21 0.11 0.01 0.00 0.00 0.00 0.00 0.00 0.00 0.00 0.00 0.00 0.00 0.00 0.00 0.00 0.00 0.00 0.00 0.00 0.00 0.00 0.00 0.00 0.00 0.00 0.00 0.00 0.00 0.00 0.00 0.00 0.00 0.00 0.00 0.00 0.00 0.00 0.00 0.00 0.00 0.00 0.00 0.00 0.00 0.00 0.00 0.00 0.00 0.02 0.01 0.01 0.03 0.06 0.07 0.20 0.26 0.25 0.26 0.27 0.29
0.09 0.09 0.09 0.06 0.11 0.08 0.05 0.06 0.09 0.06 0.05 0.07 0.06 0.03 0.05 0.03 0.04 0.02 0.03 0.03 0.02 0.06 0.04 0.04 0.04 0.29 0.13 0.17 0.15 0.00 0.00 0.00 0.00 0.00 0.00 0.00 0.00 0.00 0.00 0.00 0.00 0.00 0.00 0.00 0.00 0.00 0.00 0.00 0.00 0.00 0.00 0.00 0.00 0.00 0.00 0.00 0.00 0.00 0.00 0.00 0.00 0.00 0.00 0.00 0.00 0.00 0.00 0.00 0.00 0.00 0.00 0.00 0.00 0.00 0.00 0.01 0.02 0.03 0.01 0.03 0.06 0.14 0.19 0.23 0.30 0.32 0.32 0.26
0.08 0.12 0.10 0.10 0.08 0.10 0.06 0.08 0.07 0.08 0.04 0.05 0.04 0.03 0.02 0.02 0.02 0.03 0.03 0.02 0.02 0.04 0.03 0.06 0.07 0.13 0.40 0.34 0.01 0.00 0.00 0.00 0.00 0.00 0.00 0.00 0.00 0.00 0.00 0.00 0.00 0.00 0.00 0.00 0.00 0.00 0.00 0.00 0.00 0.00 0.00 0.00 0.00 0.00 0.00 0.00 0.00 0.00 0.00 0.00 0.00 0.00 0.00 0.00 0.00 0.00 0.00 0.00 0.00 0.00 0.00 0.00 0.00 0.00 0.00 0.02 0.02 0.03 0.05 0.07 0.11 0.14 0.18 0.25 0.30 0.43 0.43 0.53
0.10 0.11 0.10 0.12 0.08 0.08 0.09 0.08 0.05 0.06 0.05 0.03 0.03 0.03 0.02 0.01 0.03 0.02 0.02 0.02 0.03 0.03 0.08 0.03 0.22 0.20 0.38 0.06 0.00 0.00 0.00 0.00 0.00 0.00 0.00 0.00 0.00 0.00 0.00 0.00 0.00 0.00 0.00 0.00 0.00 0.00 0.00 0.00 0.00 0.00 0.00 0.00 0.00 0.00 0.00 0.00 0.00 0.00 0.00 0.00 0.00 0.00 0.00 0.00 0.00 0.00 0.00 0.00 0.00 0.00 0.00 0.00 0.00 0.00 0.01 0.03 0.01 0.01 0.03 0.06 0.12 0.19 0.16 0.22 0.28 0.35 0.38 0.56
0.08 0.09 0.09 0.09 0.08 0.09 0.11 0.07 0.08 0.05 0.05 0.05 0.02 0.02 0.01 0.01 0.01 0.02 0.02 0.02 0.03 0.02 0.03 0.11 0.09 0.25 0.30 0.01 0.00 0.00 0.00 0.00 0.00 0.00 0.00 0.00 0.00 0.00 0.00 0.00 0.00 0.00 0.00 0.00 0.00 0.00 0.00 0.00 0.00 0.00 0.00 0.00 0.00 0.00 0.00 0.00 0.00 0.00 0.00 0.00 0.00 0.00 0.00 0.00 0.00 0.00 0.00 0.00 0.00 0.00 0.00 0.00 0.00 0.00 0.01 0.02 0.02 0.01 0.01 0.06 0.18 0.24 0.13 0.20 0.22 0.40 0.32 0.46
0.11 0.10 0.09 0.08 0.07 0.08 0.07 0.11 0.06 0.05 0.06 0.07 0.03 0.02 0.01 0.01 0.01 0.00 0.00 0.01 0.01 0.03 0.07 0.08 0.08 0.06 0.06 0.02 0.04 0.00 0.00 0.00 0.00 0.00 0.00 0.00 0.00 0.00 0.00 0.00 0.00 0.00 0.00 0.00 0.00 0.00 0.00 0.00 0.00 0.00 0.00 0.00 0.00 0.00 0.00 0.00 0.00 0.00 0.00 0.00 0.00 0.00 0.00 0.00 0.00 0.00 0.00 0.00 0.00 0.00 0.00 0.00 0.00 0.00 0.01 0.05 0.03 0.02 0.07 0.12 0.22 0.16 0.23 0.25 0.21 0.18 0.22 0.34
0.10 0.11 0.09 0.07 0.07 0.06 0.07 0.07 0.06 0.05 0.05 0.05 0.02 0.00 0.01 0.00 0.00 0.00 0.01 0.02 0.03 0.04 0.11 0.03 0.02 0.05 0.12 0.00 0.00 0.00 0.00 0.02 0.00 0.00 0.00 0.00 0.00 0.00 0.00 0.00 0.00 0.00 0.00 0.00 0.00 0.00 0.00 0.00 0.00 0.00 0.00 0.00 0.00 0.00 0.00 0.00 0.00 0.00 0.00 0.00 0.00 0.00 0.00 0.01 0.00 0.00 0.00 0.00 0.00 0.00 0.00 0.00 0.00 0.00 0.01 0.04 0.02 0.03 0.06 0.33 0.36 0.43 0.23 0.67 0.23 0.33 0.26 0.25
0.08 0.08 0.08 0.06 0.05 0.05 0.06 0.06 0.07 0.08 0.05 0.05 0.03 0.01 0.01 0.00 0.01 0.00 0.02 0.02 0.02 0.01 0.02 0.01 0.04 0.30 0.12 0.00 0.01 0.01 0.00 0.00 0.00 0.01 0.00 0.00 0.00 0.00 0.00 0.00 0.00 0.00 0.00 0.00 0.00 0.00 0.00 0.00 0.00 0.00 0.00 0.00 0.00 0.00 0.00 0.01 0.00 0.00 0.00 0.00 0.00 0.00 0.00 0.00 0.00 0.00 0.00 0.00 0.00 0.00 0.00 0.00 0.00 0.00 0.01 0.01 0.02 0.01 0.06 0.11 0.20 0.30 0.59 0.25 0.15 0.55 0.49 0.37
0.10 0.08 0.06 0.05 0.05 0.05 0.05 0.06 0.07 0.07 0.06 0.04 0.01 0.01 0.00 0.01 0.02 0.03 0.01 0.03 0.06 0.12 0.15 0.11 0.12 0.06 0.05 0.02 0.00 0.00 0.00 0.00 0.00 0.00 0.00 0.00 0.00 0.00 0.00 0.00 0.00 0.00 0.00 0.00 0.00 0.00 0.00 0.00 0.00 0.00 0.00 0.00 0.00 0.00 0.00 0.00 0.00 0.00 0.01 0.02 0.00 0.00 0.00 0.00 0.00 0.00 0.00 0.00 0.00 0.00 0.00 0.00 0.00 0.00 0.01 0.04 0.08 0.03 0.04 0.12 0.18 0.25 0.19 0.48 0.48 0.66 0.61 0.42
0.08 0.11 0.08 0.09 0.07 0.05 0.08 0.06 0.04 0.04 0.05 0.05 0.02 0.04 0.01 0.04 0.13 0.08 0.03 0.03 0.02 0.00 0.00 0.00 0.01 0.00 0.00 0.00 0.00 0.01 0.00 0.00 0.00 0.01 0.00 0.00 0.00 0.00 0.00 0.00 0.00 0.00 0.00 0.00 0.00 0.00 0.00 0.00 0.00 0.00 0.00 0.00 0.00 0.00 0.00 0.00 0.00 0.00 0.00 0.00 0.01 0.00 0.01 0.00 0.00 0.00 0.00 0.00 0.00 0.00 0.00 0.00 0.00 0.00 0.00 0.00 0.03 0.07 0.10 0.28 0.21 0.22 0.20 0.29 0.17 0.14 0.47 0.77
0.11 0.08 0.09 0.07 0.07 0.07 0.07 0.11 0.13 0.07 0.10 0.10 0.04 0.03 0.03 0.06 0.04 0.08 0.10 0.10 0.05 0.01 0.02 0.00 0.01 0.00 0.00 0.00 0.00 0.00 0.00 0.00 0.00 0.00 0.00 0.01 0.00 0.00 0.01 0.00 0.00 0.00 0.00 0.00 0.01 0.00 0.00 0.00 0.00 0.00 0.00 0.00 0.00 0.00 0.00 0.00 0.00 0.00 0.00 0.00 0.00 0.00 0.01 0.00 0.00 0.00 0.00 0.00 0.00 0.00 0.00 0.00 0.00 0.00 0.00 0.02 0.03 0.03 0.02 0.09 0.13 0.22 0.17 0.33 0.18 0.14 0.30 0.78
0.09 0.08 0.08 0.11 0.09 0.12 0.08 0.05 0.04 0.10 0.10 0.07 0.06 0.03 0.04 0.04 0.05 0.10 0.33 0.13 0.01 0.00 0.00 0.00 0.00 0.00 0.00 0.00 0.00 0.00 0.00 0.00 0.00 0.00 0.00 0.00 0.01 0.00 0.01 0.00 0.00 0.01 0.00 0.00 0.00 0.00 0.00 0.00 0.00 0.00 0.00 0.00 0.00 0.00 0.00 0.00 0.00 0.00 0.00 0.00 0.00 0.00 0.00 0.00 0.00 0.00 0.00 0.00 0.00 0.00 0.00 0.00 0.00 0.00 0.01 0.01 0.01 0.01 0.01 0.02 0.08 0.11 0.26 0.24 0.18 0.14 0.33 0.81
0.07 0.09 0.11 0.13 0.13 0.09 0.06 0.07 0.03 0.04 0.08 0.03 0.03 0.03 0.06 0.02 0.01 0.04 0.19 0.23 0.08 0.00 0.00 0.00 0.00 0.00 0.00 0.00 0.00 0.00 0.00 0.00 0.01 0.01 0.05 0.01 0.00 0.00 0.01 0.00 0.00 0.00 0.00 0.00 0.01 0.01 0.01 0.01 0.00 0.00 0.00 0.00 0.00 0.00 0.00 0.00 0.00 0.00 0.00 0.00 0.00 0.00 0.00 0.04 0.00 0.00 0.00 0.00 0.00 0.00 0.00 0.00 0.00 0.00 0.00 0.00 0.00 0.01 0.03 0.03 0.12 0.18 0.21 0.39 0.34 0.30 0.21 0.31
0.06 0.08 0.08 0.13 0.08 0.09 0.04 0.09 0.06 0.03 0.05 0.05 0.06 0.05 0.03 0.02 0.03 0.14 0.39 0.30 0.04 0.00 0.00 0.00 0.00 0.00 0.00 0.00 0.00 0.00 0.00 0.00 0.00 0.02 0.04 0.02 0.01 0.04 0.00 0.00 0.01 0.00 0.01 0.00 0.00 0.01 0.01 0.02 0.00 0.00 0.00 0.00 0.00 0.00 0.00 0.00 0.00 0.00 0.00 0.00 0.00 0.00 0.02 0.00 0.06 0.00 0.00 0.00 0.00 0.00 0.00 0.00 0.00 0.00 0.00 0.00 0.01 0.02 0.01 0.05 0.08 0.17 0.32 0.66 0.60 0.61 0.40 0.33
0.05 0.07 0.09 0.07 0.09 0.30 0.11 0.05 0.02 0.10 0.02 0.02 0.19 0.09 0.02 0.02 0.07 0.11 0.21 0.12 0.01 0.00 0.00 0.00 0.00 0.00 0.02 0.00 0.00 0.00 0.00 0.00 0.00 0.01 0.04 0.00 0.03 0.00 0.01 0.03 0.01 0.01 0.00 0.00 0.01 0.00 0.00 0.01 0.01 0.01 0.00 0.00 0.00 0.00 0.00 0.00 0.00 0.00 0.00 0.00 0.00 0.00 0.01 0.00 0.00 0.00 0.00 0.01 0.00 0.00 0.02 0.02 0.01 0.00 0.00 0.00 0.01 0.05 0.01 0.03 0.08 0.14 0.05 0.20 0.24 0.42 0.17 0.29
0.06 0.07 0.09 0.10 0.14 0.17 0.23 0.05 0.07 0.03 0.07 0.13 0.10 0.09 0.14 0.14 0.03 0.04 0.16 0.16 0.24 0.12 0.01 0.11 0.03 0.33 0.04 0.10 0.02 0.00 0.00 0.01 0.01 0.05 0.10 0.16 0.01 0.02 0.04 0.02 0.00 0.01 0.02 0.01 0.01 0.01 0.02 0.00 0.00 0.00 0.00 0.00 0.00 0.00 0.00 0.00 0.00 0.00 0.05 0.00 0.00 0.00 0.00 0.00 0.00 0.01 0.04 0.07 0.06 0.00 0.03 0.05 0.01 0.01 0.00 0.00 0.00 0.01 0.00 0.03 0.14 0.20 0.17 0.10 0.15 0.17 0.46 0.72
0.11 0.12 0.11 0.14 0.10 0.28 0.16 0.15 0.08 0.06 0.10 0.18 0.03 0.02 0.07 0.12 0.03 0.05 0.43 0.31 0.22 0.12 0.16 0.05 0.05 0.30 0.07 0.12 0.04 0.04 0.31 0.29 0.00 0.03 0.07 0.14 0.01 0.00 0.01 0.01 0.00 0.00 0.00 0.08 0.01 0.01 0.02 0.01 0.01 0.00 0.00 0.01 0.00 0.01 0.00 0.00 0.01 0.03 0.04 0.01 0.00 0.01 0.00 0.01 0.01 0.01 0.06 0.00 0.01 0.00 0.01 0.06 0.06 0.04 0.00 0.01 0.01 0.02 0.02 0.03 0.10 0.25 0.19 0.14 0.32 0.31 0.25 0.93
0.05 0.11 0.12 0.10 0.19 0.87 0.50 0.26 0.07 0.14 0.07 0.19 0.14 0.23 0.08 0.13 0.14 0.35 0.47 0.22 0.16 0.18 0.50 0.27 0.14 0.21 0.30 0.14 0.04 0.06 0.06 0.04 0.25 0.14 0.19 0.05 0.00 0.06 0.01 0.01 0.03 0.05 0.08 0.08 0.08 0.03 0.00 0.00 0.00 0.00 0.00 0.01 0.03 0.04 0.01 0.00 0.01 0.07 0.00 0.01 0.01 0.01 0.08 0.02 0.01 0.03 0.06 0.02 0.10 0.01 0.01 0.01 0.06 0.04 0.00 0.01 0.02 0.02 0.05 0.03 0.14 0.09 0.11 0.21 0.45 0.30 0.44 0.62
0.04 0.07 0.11 0.10 0.14 0.17 0.19 0.19 0.16 0.11 0.19 0.15 0.17 0.13 0.22 0.25 0.23 0.41 0.81 0.37 0.71 0.38 0.06 0.69 0.09 0.35 0.18 0.10 0.11 0.05 0.03 0.07 0.26 0.32 0.24 0.01 0.00 0.05 0.12 0.02 0.01 0.03 0.03 0.01 0.06 0.03 0.01 0.01 0.06 0.06 0.03 0.02 0.00 0.02 0.02 0.00 0.03 0.00 0.00 0.00 0.00 0.03 0.01 0.02 0.04 0.02 0.05 0.02 0.05 0.05 0.05 0.04 0.03 0.05 0.01 0.01 0.03 0.10 0.09 0.11 0.11 0.16 0.14 0.30 0.20 0.31 0.29 0.75
0.17 0.09 0.13 0.18 0.17 0.08 0.19 0.17 0.23 0.24 0.10 0.20 0.11 0.12 0.17 0.39 0.68 0.51 0.58 0.28 0.76 0.69 0.21 0.51 0.68 0.49 0.27 0.37 0.22 0.11 0.33 0.15 0.19 0.07 0.01 0.09 0.05 0.04 0.01 0.08 0.06 0.04 0.03 0.01 0.01 0.01 0.06 0.03 0.02 0.07 0.04 0.01 0.01 0.05 0.02 0.00 0.00 0.00 0.00 0.01 0.02 0.00 0.02 0.01 0.04 0.05 0.06 0.08 0.03 0.01 0.04 0.01 0.08 0.17 0.11 0.19 0.06 0.09 0.11 0.16 0.15 0.11 0.15 0.29 0.18 0.32 0.52 0.66
0.04 0.06 0.08 0.26 0.36 0.21 0.13 0.12 0.45 0.05 0.11 0.13 0.13 0.17 0.26 0.55 0.70 0.39 0.31 0.30 0.65 0.66 0.18 0.38 0.48 0.25 0.38 0.50 0.32 0.14 0.08 0.15 0.16 0.06 0.15 0.03 0.22 0.04 0.12 0.12 0.05 0.08 0.06 0.04 0.02 0.02 0.01 0.05 0.05 0.02 0.01 0.06 0.00 0.02 0.00 0.01 0.00 0.00 0.00 0.02 0.02 0.06 0.04 0.07 0.13 0.13 0.19 0.06 0.03 0.03 0.01 0.11 0.06 0.19 0.14 0.10 0.08 0.09 0.10 0.17 0.10 0.29 0.11 0.12 0.15 0.34 0.53 0.53
0.04 0.13 0.10 0.35 0.11 0.19 0.23 0.10 0.19 0.13 0.13 0.13 0.17 0.24 0.52 0.69 0.42 0.59 0.28 0.07 0.58 1.19 0.66 0.52 0.57 0.36 0.32 0.17 0.21 0.19 0.26 0.12 0.04 0.02 0.14 0.17 0.15 0.12 0.17 0.20 0.06 0.16 0.11 0.07 0.14 0.01 0.10 0.11 0.02 0.00 0.00 0.00 0.00 0.00 0.01 0.00 0.00 0.00 0.00 0.01 0.15 0.24 0.09 0.24 0.21 0.22 0.16 0.04 0.13 0.01 0.03 0.03 0.01 0.41 0.15 0.06 0.11 0.08 0.14 0.10 0.12 0.10 0.14 0.16 0.16 0.15 0.34 0.39
0.11 0.09 0.10 0.21 0.26 0.20 0.12 0.14 0.32 0.38 0.12 0.25 0.28 0.50 0.54 0.52 0.42 0.30 0.27 0.28 1.19 0.98 0.81 0.21 0.38 0.28 0.41 0.32 0.31 0.12 0.05 0.21 0.10 0.17 0.10 0.23 0.20 0.10 0.13 0.08 0.12 0.08 0.12 0.10 0.06 0.03 0.05 0.00 0.00 0.00 0.00 0.00 0.00 0.01 0.08 0.02 0.01 0.00 0.01 0.14 0.16 0.37 0.21 0.18 0.19 0.13 0.11 0.04 0.04 0.09 0.06 0.06 0.22 0.25 0.14 0.25 0.34 0.29 0.29 0.13 0.09 0.10 0.14 0.18 0.19 0.45 0.97 1.44
0.06 0.06 0.13 0.08 0.08 0.15 0.31 0.37 0.38 0.23 0.25 0.37 0.31 0.49 0.77 0.53 0.26 0.15 0.27 0.33 0.67 0.46 0.51 0.28 0.36 0.14 0.28 0.46 0.30 0.09 0.25 0.22 0.10 0.35 0.15 0.28 0.28 0.26 0.19 0.09 0.06 0.12 0.09 0.20 0.13 0.07 0.29 0.26 0.01 0.00 0.04 0.00 0.00 0.00 0.02 0.03 0.03 0.01 0.00 0.03 0.25 0.27 0.33 0.13 0.12 0.10 0.03 0.19 0.09 0.05 0.01 0.05 0.19 0.75 0.05 0.18 0.27 0.32 0.25 0.31 0.25 0.24 0.19 0.25 0.55 0.64 0.40 0.42
0.08 0.18 0.19 0.34 0.06 0.09 0.50 0.36 0.14 0.23 0.38 0.40 0.31 0.50 0.45 0.34 0.25 0.38 0.44 0.44 0.42 0.38 0.47 0.21 0.18 0.24 0.34 0.40 0.42 0.52 0.31 0.38 0.15 0.31 0.23 0.37 0.45 0.23 0.16 0.11 0.06 0.06 0.20 0.10 0.21 0.03 0.08 0.05 0.07 0.00 0.03 0.00 0.00 0.00 0.01 0.03 0.02 0.01 0.02 0.02 0.07 0.16 0.11 0.23 0.31 0.09 0.28 0.16 0.08 0.06 0.03 0.29 0.64 0.44 0.18 0.17 0.11 0.15 0.11 0.10 0.13 0.17 0.19 0.21 0.30 0.20 0.26 0.35
0.04 0.09 0.04 0.11 0.24 0.48 0.23 0.40 0.18 0.19 0.28 0.35 0.34 0.44 0.45 0.25 0.52 0.37 0.67 0.41 0.53 0.67 0.55 0.29 0.26 0.33 0.44 0.71 0.91 1.08 0.27 0.34 0.22 0.22 0.28 0.27 0.18 0.17 0.05 0.04 0.03 0.02 0.19 0.10 0.31 0.25 0.07 0.10 0.01 0.00 0.00 0.00 0.00 0.00 0.01 0.00 0.32 0.34 0.01 0.12 0.10 0.11 0.10 0.17 0.08 0.06 0.05 0.03 0.14 0.10 0.13 0.15 0.08 0.33 0.32 0.39 0.25 0.19 0.27 0.29 0.27 0.26 0.29 0.26 0.25 0.31 0.40 0.30
0.12 0.08 0.31 0.22 0.13 0.22 0.14 0.18 0.24 0.16 0.19 0.31 0.39 0.30 0.15 0.21 0.19 0.32 0.51 0.53 0.53 0.64 0.72 0.78 0.50 0.48 0.59 0.66 0.78 0.44 0.52 0.32 0.38 0.34 0.53 0.29 0.32 0.05 0.05 0.07 0.02 0.06 0.06 0.20 0.27 0.06 0.17 0.23 0.06 0.01 0.02 0.00 0.01 0.01 0.01 0.00 0.01 0.20 0.07 0.13 0.02 0.03 0.15 0.14 0.30 0.18 0.12 0.09 0.09 0.02 0.08 0.30 0.07 0.92 0.36 0.46 0.21 0.17 0.26 0.29 0.26 0.34 0.33 0.37 0.58 0.44 0.46 0.54
0.38 0.11 0.22 0.44 0.23 0.18 0.21 0.34 0.22 0.38 0.33 0.31 0.24 0.15 0.10 0.27 0.12 0.25 0.30 0.42 0.41 0.57 0.76 0.65 0.73 0.66 0.69 0.74 0.61 0.59 0.39 0.68 0.68 0.33 0.64 0.34 0.63 0.02 0.08 0.15 0.13 0.20 0.15 0.18 0.08 0.36 0.02 0.25 0.12 0.01 0.03 0.04 0.01 0.01 0.02 0.00 0.00 0.03 0.09 0.15 0.05 0.33 0.32 0.19 0.16 0.14 0.13 0.03 0.11 0.03 0.07 0.15 0.18 0.59 0.29 0.29 0.30 0.22 0.23 0.28 0.34 0.34 0.41 0.38 0.43 0.87 1.10 1.25
0.25 0.27 0.64 0.31 0.50 0.28 0.22 0.19 0.36 0.63 0.26 0.29 0.29 0.27 0.17 0.28 0.08 0.26 0.34 0.39 0.37 0.54 0.60 0.51 1.15 0.52 0.34 0.57 0.62 0.72 0.53 0.61 0.30 0.53 0.60 0.70 0.26 0.17 0.19 0.10 0.43 0.29 0.18 0.07 0.05 0.10 0.01 0.17 0.15 0.06 0.02 0.06 0.03 0.01 0.15 0.05 0.01 0.02 0.00 0.01 0.04 0.09 0.21 0.27 0.16 0.26 0.10 0.31 0.09 0.08 0.12 0.36 0.19 0.51 0.33 0.25 0.17 0.29 0.22 0.24 0.38 0.40 0.54 0.74 0.58 0.68 0.82 1.37
0.30 0.50 0.75 0.55 0.47 0.30 0.12 0.06 0.39 0.44 0.44 0.31 0.33 0.25 0.11 0.33 0.07 0.13 0.25 0.40 0.66 0.58 0.73 0.40 0.50 0.83 0.41 0.55 0.69 1.00 0.81 0.31 0.38 0.69 0.40 0.88 0.40 0.08 0.15 0.22 0.57 0.35 0.13 0.03 0.09 0.01 0.13 0.15 0.29 0.19 0.05 0.00 0.18 0.01 0.09 0.10 0.14 0.10 0.04 0.02 0.04 0.07 0.35 0.16 0.39 0.15 0.23 0.38 0.28 0.17 0.17 0.37 0.64 0.24 0.12 0.26 0.22 0.24 0.21 0.49 0.75 0.72 1.11 1.39 1.53 1.53 1.55 1.57
0.22 0.74 0.79 0.30 0.23 0.34 0.05 0.32 0.58 0.39 0.26 0.20 0.18 0.38 0.20 0.23 0.14 0.22 0.17 0.20 0.32 0.31 0.40 0.35 0.46 0.71 0.64 0.59 0.63 0.79 0.96 0.61 0.46 0.62 0.30 0.36 0.41 0.67 0.15 0.56 0.56 0.46 0.05 0.11 0.03 0.17 0.17 0.11 0.28 0.16 0.14 0.05 0.11 0.01 0.09 0.03 0.06 0.08 0.10 0.16 0.10 0.25 0.44 0.41 0.54 0.05 0.12 0.21 0.23 0.11 0.23 0.59 0.63 0.13 0.17 0.19 0.37 0.33 0.30 0.49 0.62 0.78 0.45 0.50 0.60 0.41 0.43 0.77
0.34 0.74 1.31 0.60 0.56 0.23 0.23 0.42 0.26 0.36 0.32 0.28 0.44 0.35 0.46 0.21 0.22 0.21 0.16 0.18 0.25 0.39 0.28 0.27 0.26 0.51 0.47 0.89 1.10 0.90 1.14 0.72 0.27 0.34 0.26 0.61 0.47 0.46 0.31 0.37 0.54 0.41 0.15 0.21 0.16 0.16 0.17 0.21 0.09 0.12 0.13 0.28 0.08 0.11 0.06 0.04 0.02 0.14 0.06 0.20 0.04 0.20 0.26 0.53 0.50 0.59 0.25 0.20 0.22 0.31 0.29 0.68 0.40 0.31 0.44 0.49 0.70 0.30 0.51 0.46 0.62 0.62 0.86 1.18 0.56 0.41 0.50 0.84
0.39 0.93 0.95 0.82 1.16 1.02 0.57 0.45 0.31 0.41 0.37 0.25 0.23 0.25 0.43 0.27 0.20 0.17 0.26 0.19 0.31 0.21 0.24 0.25 0.37 0.51 0.53 0.98 1.23 1.37 1.18 1.06 0.33 0.51 0.35 0.23 0.30 0.24 0.28 0.47 0.25 0.19 0.06 0.39 0.01 0.17 0.01 0.13 0.12 0.09 0.17 0.10 0.09 0.06 0.08 0.06 0.03 0.19 0.06 0.05 0.14 0.32 0.28 0.48 0.53 0.52 0.34 0.26 0.21 0.22 0.28 0.60 0.33 0.47 0.57 0.77 0.48 0.44 0.81 1.01 0.72 0.46 0.51 0.53 0.52 0.69 0.62 0.60
0.57 1.35 0.97 1.09 1.15 1.21 0.70 0.64 0.51 0.23 0.26 0.25 0.15 0.14 0.15 0.50 0.37 0.37 0.33 0.31 0.41 0.29 0.19 0.22 0.35 0.62 0.66 0.65 1.00 1.57 1.13 1.56 0.37 0.21 0.37 0.15 0.53 0.04 0.26 0.32 0.20 0.28 0.20 0.58 0.27 0.48 0.59 0.51 0.18 0.37 0.16 0.13 0.34 0.18 0.19 0.19 0.13 0.40 0.22 0.15 0.12 0.14 0.21 0.29 0.18 0.19 0.26 0.16 0.32 0.33 0.40 0.45 0.59 0.62 0.44 0.64 0.73 0.89 0.85 0.59 0.70 0.67 0.50 0.60 0.68 0.70 0.57 0.81
0.92 1.05 1.22 1.29 0.88 1.27 0.90 0.45 0.40 0.20 0.31 0.17 0.20 0.26 0.30 0.28 0.36 0.42 0.31 0.42 0.25 0.34 0.23 0.14 0.17 0.46 0.52 0.59 0.79 0.70 0.73 1.29 1.04 0.32 0.62 0.28 0.65 0.03 0.06 0.07 0.08 0.54 0.16 0.17 0.17 0.26 0.23 0.59 0.34 0.35 0.40 0.29 0.53 0.45 0.39 0.40 0.30 0.32 0.21 0.08 0.06 0.13 0.32 0.16 0.16 0.20 0.23 0.15 0.11 0.50 0.79 0.69 1.11 0.73 0.59 0.49 0.29 0.52 0.77 0.74 1.13 0.97 0.89 1.19 1.64 1.87 1.70 0.98
1.12 1.38 0.95 1.38 1.28 0.59 0.51 0.30 0.48 0.62 0.48 0.39 0.32 0.34 0.28 0.50 0.36 0.36 0.28 0.52 0.33 0.28 0.14 0.08 0.25 0.51 0.67 0.70 0.79 0.97 0.68 0.33 0.71 0.58 0.28 0.89 0.55 0.09 0.09 0.09 0.15 0.29 0.39 0.30 0.31 0.10 0.59 0.26 0.35 0.41 0.36 0.61 0.44 0.43 0.25 0.11 0.22 0.35 0.22 0.12 0.14 0.16 0.38 0.35 0.33 0.34 0.31 0.15 0.31 0.85 0.66 0.82 0.96 0.68 0.47 0.63 0.52 0.65 0.86 0.84 0.77 0.74 0.81 1.43 1.45 1.24 1.20 1.16
0.73 1.17 1.04 1.00 0.71 1.10 0.68 0.46 0.45 0.51 0.87 0.91 0.83 0.60 0.60 0.48 0.60 0.55 0.37 0.63 0.37 0.31 0.14 0.21 0.26 0.60 0.59 1.08 1.24 1.22 0.48 0.45 0.32 0.27 0.53 0.33 0.64 0.53 0.05 0.17 0.16 0.39 0.55 0.18 0.09 0.15 0.34 0.36 0.30 0.25 0.29 0.22 0.31 0.32 0.18 0.09 0.52 0.33 0.21 0.17 0.14 0.12 0.17 0.24 0.26 0.73 0.36 0.44 0.74 1.00 0.83 0.50 0.74 0.91 0.59 0.46 0.48 0.59 0.46 0.68 0.58 0.50 0.97 0.56 0.72 0.69 0.75 0.85
0.88 1.17 1.12 1.62 1.37 0.90 0.79 0.68 0.39 1.14 0.67 0.87 0.85 0.37 0.53 0.50 0.57 1.12 0.67 0.52 0.44 0.38 0.30 0.08 0.35 0.40 0.45 1.01 1.58 1.26 0.87 0.60 0.25 0.32 0.44 0.30 0.58 1.09 0.36 0.19 0.31 0.50 0.41 0.32 0.21 0.37 0.85 0.38 0.30 0.23 0.28 0.23 0.54 0.33 0.18 0.22 0.26 0.32 0.44 0.46 0.37 0.31 0.50 0.59 0.59 0.33 0.38 0.69 0.81 0.75 0.68 0.67 0.81 0.68 0.58 0.46 0.50 0.66 0.53 0.61 0.42 0.58 0.74 0.79 1.11 0.96 0.83 0.80
0.92 1.16 1.29 1.21 1.50 0.69 0.63 0.91 0.65 0.61 0.70 0.71 0.68 0.52 0.51 0.69 0.66 0.92 1.56 0.77 0.57 0.43 0.37 0.33 0.35 0.25 0.46 1.00 1.31 1.70 1.39 1.70 0.99 0.73 0.33 0.59 0.47 0.54 0.64 0.55 0.51 0.57 0.27 0.24 0.42 0.19 0.37 0.85 0.52 0.39 0.37 0.44 0.25 0.26 0.25 0.27 0.27 0.30 0.35 0.35 0.54 0.58 0.60 0.43 0.62 0.68 0.70 0.96 0.60 0.60 0.86 1.27 0.85 1.10 0.79 0.81 0.48 0.66 0.70 0.59 0.34 0.65 1.57 0.61 0.86 1.01 0.57 0.58
1.46 2.00 1.33 0.73 1.08 0.79 0.46 0.60 0.80 0.68 0.59 0.49 0.60 0.50 0.56 0.57 0.99 0.77 1.07 1.13 0.80 0.69 0.37 0.51 0.43 0.26 0.45 0.50 0.91 1.72 1.59 1.66 1.43 1.45 0.40 0.20 0.37 0.31 0.63 0.75 0.85 0.87 0.79 0.69 0.43 0.46 0.37 1.00 0.17 0.59 0.47 0.46 0.46 0.26 0.41 0.47 0.40 0.53 0.52 0.38 0.55 0.59 0.52 0.44 0.37 0.47 0.56 1.03 1.16 0.51 0.98 1.08 1.25 1.05 1.18 0.69 0.69 0.70 0.38 1.40 0.80 0.57 0.77 0.78 0.86 0.94 0.82 0.52
1.33 1.34 1.95 1.78 0.87 0.67 0.62 0.40 0.45 0.59 0.82 0.67 0.60 0.50 0.61 0.57 0.99 1.12 1.30 0.98 0.89 0.52 0.48 0.51 0.22 0.29 0.34 0.46 0.58 1.24 1.35 1.04 0.84 1.12 0.31 0.19 0.57 0.36 0.51 0.53 0.25 0.58 0.44 0.92 0.82 1.99 0.60 1.37 0.43 0.77 0.43 0.60 0.49 0.52 0.68 0.52 0.60 0.70 0.68 0.53 0.53 0.55 0.62 0.56 0.69 1.07 0.75 0.86 0.64 0.47 0.51 1.13 1.39 1.37 1.30 1.53 1.17 0.44 0.57 1.22 1.27 1.21 1.10 0.90 0.76 0.92 0.81 0.72
0.84 0.77 1.48 1.72 1.17 0.31 0.67 0.27 0.34 0.45 0.59 0.73 0.96 0.72 0.97 0.83 0.73 1.09 0.87 0.66 0.97 0.73 0.41 0.33 0.44 0.65 0.51 0.61 0.93 1.40 1.28 1.11 1.10 0.66 0.22 0.16 0.21 0.26 0.18 0.22 0.18 0.43 0.67 0.70 0.90 1.15 1.04 0.91 0.52 0.72 0.41 0.34 0.45 0.57 0.69 0.99 0.93 0.54 0.60 0.53 0.46 0.54 0.46 0.59 0.52 1.01 0.90 0.99 0.63 0.64 0.71 0.62 0.91 0.65 1.25 1.45 1.28 1.56 1.35 1.13 1.02 1.19 1.40 1.38 1.30 1.49 1.10 0.90